Watson, IL

12:16 AM CST on February 23, 2017 (GMT -0600)
Effingham

Weather History for K1H2 - September, 2013

Change the Weather History Date:

Thursday, September 19, 2013

  Actual Average (KMTO) Record (KMTO)
Temperature  
Mean Temperature 80 °F -  
Max Temperature 91 °F 77 °F 95 °F (1955)
Min Temperature 70 °F 55 °F 39 °F (1991)
Cooling Degree Days 15    
Growing Degree Days 30 (Base 50)    
Moisture  
Dew Point 66 °F    
Average Humidity 68    
Maximum Humidity 89    
Minimum Humidity 40    
Precipitation  
Precipitation 0.05 in - - ()
Sea Level Pressure  
Sea Level Pressure 29.99 in    
Wind  
Wind Speed 7 mph (South)    
Max Wind Speed 13 mph    
Max Gust Speed 17 mph    
Visibility 8 miles    
Events Rain    
Averages and records for this station are not official NWS values.
T = Trace of Precipitation, MM = Missing Value Source: NWS Daily Summary

Daily Weather History Graph

Daily Weather History Graph

Search for Another Location

Airport or City:

Trip Planner

Search our weather history database for the weather conditions in past years. The results will help you decide how hot, cold, wet, or windy it might be!

Date:

Astronomy

Sep. 19, 2013 Rise Set
Actual Time 6:39 AM CDT 6:55 PM CDT
Civil Twilight 6:12 AM CDT 7:22 PM CDT
Nautical Twilight 5:41 AM CDT 7:53 PM CDT
Astronomical Twilight 5:09 AM CDT 8:25 PM CDT
Moon 6:54 PM CDT (9/19) 6:47 AM CDT (9/19)
Length of Visible Light 13h 09m
Length of Day
12h 16m
Full, 100% of the Moon is Illuminated
Sep 19
Full
Sep 26
Last Quarter
Oct 4
New
Oct 11
First Quarter
Oct 18
Full

Hourly Weather History & Observations

Time (CDT) Temp. Heat Index Dew Point Humidity Pressure Visibility Wind Dir Wind Speed Gust Speed Precip Events Conditions
12:15 AM 72.9 °F - 67.8 °F 84% 30.03 in 7.0 mi South 5.8 mph - N/A   Clear
12:35 AM 72.9 °F - 67.8 °F 84% 30.03 in 7.0 mi South 5.8 mph - N/A   Clear
12:55 AM 72.7 °F - 68.0 °F 85% 30.03 in 7.0 mi South 4.6 mph - N/A   Clear
1:15 AM 72.5 °F - 68.0 °F 86% 30.03 in 7.0 mi South 4.6 mph - N/A   Clear
1:35 AM 72.5 °F - 68.0 °F 86% 30.03 in 7.0 mi South 5.8 mph - N/A   Clear
1:55 AM 72.5 °F - 68.0 °F 86% 30.03 in 7.0 mi South 4.6 mph - N/A   Clear
2:15 AM 72.5 °F - 68.0 °F 86% 30.03 in 7.0 mi South 4.6 mph - N/A   Clear
2:35 AM 72.5 °F - 68.0 °F 86% 30.03 in 7.0 mi South 5.8 mph - N/A   Clear
2:55 AM 72.3 °F - 68.0 °F 86% 30.03 in 7.0 mi South 5.8 mph - N/A   Clear
3:15 AM 72.0 °F - 68.0 °F 87% 30.02 in 5.0 mi South 5.8 mph - N/A   Clear
3:35 AM 71.8 °F - 67.6 °F 87% 30.02 in 5.0 mi South 5.8 mph - N/A Rain Light Rain
3:55 AM 71.6 °F - 68.0 °F 88% 30.02 in 5.0 mi South 5.8 mph - N/A   Clear
4:15 AM 71.2 °F - 67.6 °F 88% 30.02 in 5.0 mi South 5.8 mph - N/A Rain Light Rain
4:35 AM 71.2 °F - 67.6 °F 88% 30.02 in 5.0 mi South 5.8 mph - N/A   Mostly Cloudy
4:55 AM 71.1 °F - 67.5 °F 88% 30.02 in 5.0 mi South 5.8 mph - N/A   Overcast
5:15 AM 71.1 °F - 67.5 °F 88% 30.03 in 5.0 mi SSW 4.6 mph - N/A   Overcast
5:35 AM 71.1 °F - 67.6 °F 89% 30.02 in 4.0 mi South 8.1 mph - 0.03 in Rain Light Rain
5:55 AM 71.1 °F - 67.6 °F 89% 30.02 in 5.0 mi South 4.6 mph - 0.03 in Rain Light Rain
6:15 AM 70.9 °F - 67.5 °F 89% 30.03 in 5.0 mi SSW 4.6 mph - N/A Rain Light Rain
6:35 AM 70.7 °F - 67.5 °F 89% 30.03 in 5.0 mi SSE 4.6 mph - 0.01 in   Scattered Clouds
6:55 AM 70.7 °F - 67.3 °F 89% 30.03 in 3.0 mi South 5.8 mph - 0.01 in   Clear
7:15 AM 70.7 °F - 67.5 °F 89% 30.03 in 4.0 mi South 5.8 mph - N/A   Scattered Clouds
7:35 AM 70.9 °F - 67.5 °F 89% 30.03 in 4.0 mi South 5.8 mph - N/A Rain Light Rain
7:55 AM 71.2 °F - 67.8 °F 89% 30.03 in 4.0 mi South 4.6 mph - N/A Rain Light Rain
8:15 AM 71.6 °F - 68.0 °F 88% 30.03 in 4.0 mi South 6.9 mph - N/A   Unknown
8:35 AM 72.7 °F - 68.7 °F 87% 30.03 in 5.0 mi SSW 5.8 mph - N/A   Clear
8:55 AM 73.4 °F - 68.5 °F 85% 30.03 in 5.0 mi SSW 6.9 mph - N/A   Clear
9:15 AM 74.8 °F - 69.3 °F 83% 30.03 in 7.0 mi SSW 8.1 mph - 0.01 in   Clear
9:35 AM 75.9 °F - 69.4 °F 80% 30.03 in 7.0 mi SSW 9.2 mph - 0.01 in   Clear
9:55 AM 77.2 °F - 69.1 °F 76% 30.03 in 10.0 mi SSW 9.2 mph - 0.01 in   Clear
10:15 AM 77.7 °F - 68.9 °F 74% 30.03 in 10.0 mi SSW 10.4 mph - N/A   Clear
10:35 AM 78.3 °F - 68.2 °F 71% 30.03 in 10.0 mi SSW 9.2 mph - N/A   Clear
10:55 AM 79.9 °F - 68.0 °F 67% 30.03 in 10.0 mi South 8.1 mph - N/A   Clear
11:15 AM 81.0 °F 83.4 °F 67.1 °F 63% 30.03 in 10.0 mi SSW 6.9 mph - N/A   Clear
11:35 AM 83.1 °F 85.9 °F 67.3 °F 59% 30.03 in 10.0 mi SSW 6.9 mph - N/A   Clear
11:55 AM 82.6 °F 84.7 °F 65.8 °F 57% 30.02 in 10.0 mi SW 8.1 mph - N/A   Clear
12:15 PM 84.9 °F 87.1 °F 66.2 °F 53% 30.02 in 10.0 mi SSW 6.9 mph - N/A   Clear
12:35 PM 85.8 °F 86.8 °F 63.7 °F 47% 30.01 in 10.0 mi SSW 8.1 mph 16.1 mph N/A   Clear
12:55 PM 87.3 °F 88.6 °F 64.2 °F 46% 30.00 in 10.0 mi South 10.4 mph 16.1 mph N/A   Clear
1:15 PM 86.5 °F 88.1 °F 64.6 °F 48% 30.00 in 10.0 mi South 9.2 mph 17.3 mph N/A   Clear
1:35 PM 87.8 °F 89.7 °F 65.3 °F 47% 29.99 in 10.0 mi South 8.1 mph 16.1 mph N/A   Clear
1:55 PM 89.1 °F 90.3 °F 63.7 °F 43% 29.98 in 10.0 mi SW 12.7 mph 17.3 mph N/A   Scattered Clouds
2:15 PM 89.6 °F 90.8 °F 63.5 °F 42% 29.97 in 10.0 mi SSW 8.1 mph - N/A   Scattered Clouds
2:35 PM 90.3 °F 91.5 °F 63.5 °F 41% 29.97 in 10.0 mi South 10.4 mph - N/A   Scattered Clouds
2:55 PM 90.5 °F 92.2 °F 64.4 °F 42% 29.96 in 10.0 mi South 8.1 mph - N/A   Scattered Clouds
3:15 PM 89.2 °F 90.2 °F 63.7 °F 42% 29.95 in 10.0 mi South 8.1 mph - N/A   Scattered Clouds
3:35 PM 90.7 °F 91.7 °F 63.3 °F 40% 29.95 in 10.0 mi South 10.4 mph - N/A   Scattered Clouds
3:55 PM 90.1 °F 90.9 °F 63.1 °F 40% 29.94 in 10.0 mi SSW 9.2 mph 16.1 mph N/A   Clear
4:15 PM 90.5 °F 91.8 °F 63.5 °F 41% 29.93 in 10.0 mi South 9.2 mph - N/A   Scattered Clouds
4:35 PM 89.4 °F 90.2 °F 63.1 °F 41% 29.93 in 10.0 mi SSW 8.1 mph - N/A   Clear
4:55 PM 89.2 °F 89.9 °F 63.0 °F 41% 29.92 in 10.0 mi South 9.2 mph - N/A   Clear
5:15 PM 88.3 °F 88.9 °F 62.8 °F 42% 29.91 in 10.0 mi South 6.9 mph - N/A   Clear
5:35 PM 87.4 °F 88.0 °F 62.6 °F 43% 29.90 in 10.0 mi South 9.2 mph - N/A   Clear
5:55 PM 86.2 °F 87.1 °F 63.0 °F 46% 29.90 in 10.0 mi South 5.8 mph - N/A   Clear
6:15 PM 84.7 °F 86.1 °F 64.4 °F 50% 29.90 in 10.0 mi South 6.9 mph - N/A   Clear
6:35 PM 83.5 °F 85.3 °F 65.3 °F 54% 29.90 in 10.0 mi South 5.8 mph - N/A   Clear
6:55 PM 82.0 °F 84.1 °F 65.8 °F 58% 29.90 in 10.0 mi South 5.8 mph - N/A   Clear
7:15 PM 81.7 °F 83.8 °F 66.0 °F 59% 29.91 in 10.0 mi South 6.9 mph - N/A   Clear
7:35 PM 81.5 °F 83.6 °F 65.8 °F 59% 29.92 in 10.0 mi South 5.8 mph - N/A   Clear
7:55 PM 80.6 °F 82.7 °F 66.0 °F 61% 29.93 in 10.0 mi South 5.8 mph - N/A   Clear
8:15 PM 80.4 °F 82.4 °F 65.7 °F 61% 29.93 in 10.0 mi South 9.2 mph - N/A   Clear
8:35 PM 79.9 °F - 65.7 °F 62% 29.93 in 10.0 mi South 5.8 mph - N/A   Clear
8:55 PM 79.2 °F - 66.4 °F 65% 29.93 in 10.0 mi South 6.9 mph - N/A   Clear
9:15 PM 78.8 °F - 66.7 °F 66% 29.93 in 10.0 mi South 6.9 mph - N/A   Clear
9:35 PM 78.8 °F - 67.1 °F 67% 29.93 in 10.0 mi South 8.1 mph - N/A   Clear
9:55 PM 78.3 °F - 67.3 °F 69% 29.93 in 10.0 mi South 8.1 mph - N/A   Clear
10:15 PM 78.1 °F - 67.3 °F 69% 29.94 in 10.0 mi South 11.5 mph - N/A   Clear
10:35 PM 78.1 °F - 67.1 °F 69% 29.95 in 10.0 mi South 10.4 mph - N/A   Clear
10:55 PM 77.9 °F - 67.1 °F 69% 29.95 in 10.0 mi South 8.1 mph - N/A   Clear
11:15 PM 77.5 °F - 67.1 °F 70% 29.95 in 10.0 mi South 8.1 mph - N/A   Clear
11:35 PM 77.0 °F - 67.1 °F 71% 29.94 in 10.0 mi South 8.1 mph - N/A   Clear
11:55 PM 76.5 °F - 67.1 °F 73% 29.94 in 10.0 mi South 8.1 mph - N/A   Clear